Regional Weather Roundup
Issued by NWS Charleston, WV

Home | Current Version | Previous Version | Graphics & Text | Print | Product List | Glossary On
Versions: 1 2 3 4 5 6 7 8 9 10 11 12 13 14 15 16 17 18 19 20 21 22 23 24 25 26 27 28 29 30 31 32 33 34 35 36 37 38 39 40 41 42 43 44 45 46 47 48 49 50
017
ASUS41 KRLX 241910
RWRRLX
West Virginia Regional Weather Roundup
National Weather Service Charleston WV
300 PM EDT WED MAY 24 2017

Note: "fair" indicates few or no clouds below 12,000 feet with no
significant weather and/or obstructions to visibility.

WVZ003-242000-
Northern Panhandle of West Virginia

CITY           SKY/WX    TMP DP  RH WIND       PRES   REMARKS
WHEELING       CLOUDY    65  57  75 E14G23    29.57F
$$

WVZ009-242000-
Northwest West Virginia

CITY           SKY/WX    TMP DP  RH WIND       PRES   REMARKS
PARKERSBURG    CLOUDY    70  60  70 SE7       29.53F
$$

WVZ006-242000-
Western West Virginia

CITY           SKY/WX    TMP DP  RH WIND       PRES   REMARKS
HUNTINGTON     LGT RAIN  65  62  90 E10       29.45F
$$

WVZ015-242000-
West Central West Virginia

CITY           SKY/WX    TMP DP  RH WIND       PRES   REMARKS
CHARLESTON     TSTM      65  59  81 E7        29.49F
$$

WVZ022-031-242000-
North Central West Virginia

CITY           SKY/WX    TMP DP  RH WIND       PRES   REMARKS
CLARKSBURG     CLOUDY    70  54  56 SE10G22   29.55F
MORGANTOWN     MOSUNNY   69  54  58 E16G25    29.60S
$$

WVZ025-035-042-045-242000-
Southern West Virginia

CITY           SKY/WX    TMP DP  RH WIND       PRES   REMARKS
BECKLEY        LGT RAIN  59  55  87 SE13G21   29.57F
LOGAN          LGT RAIN  63  63 100 CALM      29.51R
BLUEFIELD      LGT RAIN  57  54  89 SE9G16    29.59R FOG
LEWISBURG      CLOUDY    58  54  84 SE9       29.62F
$$

WVZ047-242000-
Northern Mountains of West Virginia

CITY           SKY/WX    TMP DP  RH WIND       PRES   REMARKS
ELKINS         CLOUDY    66  53  63 SE13G21   29.62F
$$

WVZ052-242000-
Eastern Panhandle of West Virginia

CITY           SKY/WX    TMP DP  RH WIND       PRES   REMARKS
MARTINSBURG    CLOUDY    64  54  69 SE10      29.72R
PETERSBURG     CLOUDY    63  58  84 E6        29.68S
$$




USA.gov is the U.S. government's official web portal to all federal, state and local government web resources and services.